Location: Fairview
(40.8165°N, 122.7667°W)
Time: 23:05:17
(UTC+00:00)

USA 81 - Pass Details

Date: 12 September 2024
Orbit: 784 x 786 km, 85.0° (Epoch: 06 October)

Event Time Altitude Azimuth Distance (km) Brightness Sun altitude
Rises 03:09:47 0° 340° (NNW) 3,284 7.8 -9.1°
Reaches altitude 10° 03:12:41 10° 324° (NW) 2,350 7.3 -9.6°
Maximum altitude 03:16:28 20° 278° (W) 1,734 7.0 -10.3°
Drops below altitude 10° 03:20:13 10° 232° (SW) 2,337 7.0 -11.0°
Sets 03:23:07 0° 216° (SW) 3,260 7.5 -11.5°
